Flag for China Weather past 2 weeks in Langfang, Hebei, China

Now
75 °F

Passing clouds.


Feels Like: 78 °F
Forecast: 65 / 93 °F
Wind: 3 mph from East

Location: Beijing Airport

Current Time: Jul 4, 2015 at 11:43:12 AM

Latest Report: Jul 4, 2015 at 11:00 AM


Visibility: N/A

Pressure: 29.83 "Hg

Humidity: 54%

Dew point: 57 °F

Location of LangfangLocation

Historic Weather in Langfang — Graph

°F

Langfang temperature yesterday

Maximum temperature yesterday: 88 °F (at 1:30 PM)
Minimum temperature yesterday: 63 °F (at 4:00 AM)
Average temperature yesterday: 77 °F

Past Weeks' High & Low Weather Summary

 TemperatureHumidityPressure
High93 °F (Jul 2, 3:00 PM)100% (Jun 26, 8:30 AM)29.92 "Hg (Jun 26, 8:30 AM)
Low61 °F (Jun 20, 4:00 AM)17% (Jul 2, 5:00 PM)29.42 "Hg (Jul 1, 2:30 AM)
Average77 °F64%29.68 "Hg
* Reported Jun 19 10:00 AM — Jul 4 10:30 AM, Langfang, Weather by CustomWeather, © 2015

Note: Actual official high and low records may vary slightly from our data, if they occured in-between our weather recording intervals... More about our weather records

Advertising

Langfang weather history for previous 24 hours

 ConditionsComfort  
Time TempWeatherWind HumidityBarometerVisibility
10:30 AM
Sat, Jul 4
75 °FPassing clouds.3 mph57%29.83 "HgN/A
10:00 AM73 °FPassing clouds.3 mph61%29.83 "HgN/A
9:30 AM75 °FPassing clouds.3 mph57%29.83 "HgN/A
9:00 AM73 °FSunny.1 mph61%29.83 "Hg10 mi
8:30 AM73 °FPassing clouds.3 mph61%29.83 "HgN/A
8:00 AM73 °FPassing clouds.3 mph65%29.83 "HgN/A
7:30 AM72 °FSunny.1 mph65%29.83 "Hg10 mi
7:00 AM72 °FPassing clouds.3 mph65%29.83 "HgN/A
6:30 AM70 °FLight rain. Clear.3 mph69%29.83 "HgN/A
6:00 AM68 °FLight rain. Clear.3 mph73%29.83 "HgN/A
5:30 AM68 °FSunny.1 mph73%29.86 "Hg10 mi
5:00 AM68 °FSunny.1 mph73%29.86 "Hg10 mi
4:30 AM68 °FPassing clouds.3 mph69%29.83 "HgN/A
4:00 AM68 °FClear.6 mph69%29.83 "Hg10 mi
3:30 AM68 °FClear.3 mph69%29.83 "Hg10 mi
3:00 AM68 °FClear.1 mph69%29.83 "Hg10 mi
2:30 AM70 °FClear.1 mph60%29.83 "Hg10 mi
2:00 AM68 °FClear.3 mph64%29.83 "Hg10 mi
1:30 AM68 °FClear.1 mph64%29.83 "Hg10 mi
1:00 AM70 °FClear.1 mph57%29.83 "Hg10 mi
12:30 AM72 °FClear.3 mph50%29.83 "Hg10 mi
12:00 AM72 °FClear.3 mph50%29.83 "Hg10 mi
11:30 PM
Fri, Jul 3
73 °FClear.6 mph44%29.83 "Hg10 mi
11:00 PM75 °FClear.10 mph41%29.83 "Hg10 mi
10:30 PM75 °FPassing clouds.8 mph47%29.83 "HgN/A
10:00 PM75 °FClear.6 mph47%29.80 "Hg10 mi
9:30 PM77 °FClear.8 mph47%29.80 "Hg10 mi
9:00 PM79 °FClear.10 mph48%29.77 "Hg10 mi
8:30 PM79 °FClear.8 mph48%29.77 "Hg10 mi
8:00 PM81 °FClear.10 mph42%29.74 "Hg10 mi
7:30 PM82 °FSunny.8 mph37%29.74 "Hg10 mi
7:00 PM84 °FSunny.8 mph33%29.74 "Hg10 mi
6:30 PM86 °FSunny.6 mph31%29.71 "Hg10 mi
6:00 PM86 °FSunny.8 mph31%29.71 "Hg10 mi
5:30 PM86 °FPassing clouds.8 mph29%29.71 "HgN/A
5:00 PM88 °FPassing clouds.8 mph29%29.71 "HgN/A
4:30 PM88 °FPassing clouds.6 mph29%29.71 "HgN/A
4:00 PM88 °FPassing clouds.8 mph31%29.71 "HgN/A
3:30 PM88 °FPassing clouds.8 mph27%29.74 "HgN/A
3:00 PM86 °FPassing clouds.6 mph29%29.74 "HgN/A
2:30 PM88 °FPassing clouds.6 mph31%29.74 "HgN/A
2:00 PM88 °FSunny.3 mph29%29.74 "Hg10 mi
1:30 PM88 °FSunny.6 mph27%29.77 "Hg10 mi
1:00 PM86 °FPassing clouds.6 mph29%29.77 "HgN/A
12:30 PM84 °FSunny.3 mph29%29.77 "Hg10 mi
12:00 PM84 °FSunny.3 mph29%29.80 "Hg10 mi
11:30 AM82 °FSunny.1 mph32%29.80 "Hg10 mi
Weather by CustomWeather, © 2015

See weather overviewHow to use our weather pages